User: anonymous   Login
Location: Unspecified
(0.0000°N, 0.0000°E)
Time: 22:47:47
(UTC+00:00)
Language:

Tancredo 1 - Orbit

View from above orbital plane
View from above orbital plane
View from above satellite
View from above satellite

Ground track
Ground track

The orbit data is extracted from the following two-line orbital elements,

1 41931U 98067KT  17113.89173177 +.00094534 +00000-0 +10292-2 0  9995
2 41931 051.6379 305.9751 0005507 080.5707 279.5910 15.62631482015091
Epoch (UTC): 23 April 2017 21:24:05
Eccentricity: 0.0005507
inclination: 51.6379°
perigee height: 376 km
apogee height: 384 km
right ascension of ascending node: 305.9751°
argument of perigee: 80.5707°
revolutions per day: 15.62631482
mean anomaly at epoch: 279.5910°
orbit number at epoch: 1509

The dashed part of the orbit path shows where the satellite is in the earth's shadow,  

DLR